User: anonymous   Login
Location: Unspecified
(0.0000°N, 0.0000°E)
Time: 04:15:58
(UTC+00:00)
Language:

TELEOS 1 - Orbit

View from above orbital plane
View from above orbital plane
View from above satellite
View from above satellite

Ground track
Ground track

The orbit data is extracted from the following two-line orbital elements,

1 41169U 15077D   18292.07863507  .00001354  00000-0  41305-4 0  9999
2 41169  14.9762 217.2286 0010142 273.8060 197.5600 15.10012027156957
Epoch (UTC): 19 October 2018 01:53:14
Eccentricity: 0.0010142
inclination: 14.9762°
perigee height: 529 km
apogee height: 543 km
right ascension of ascending node: 217.2286°
argument of perigee: 273.8060°
revolutions per day: 15.10012027
mean anomaly at epoch: 197.5600°
orbit number at epoch: 15695

The dashed part of the orbit path shows where the satellite is in the earth's shadow,  

DLR